EW8702 Weather Reports


Display with metric or nautical units.
time (UTC)temp
F
wind
direction
speed
MPH
gust
MPH
rain 1hr
in
rain 24hr
in
rain mn
in
humidity
%
barometer
mb
20260507043122 48 307 0.0 2.0 0.00 0.01 0.01 49 1019.4
20260507042122 48 307 1.0 3.0 0.00 0.01 0.01 48 1019.5
20260507041122 50 287 1.0 4.0 0.00 0.01 0.01 48 1019.6
20260507040122 51 0 0.0 0.0 0.00 0.01 0.01 45 1019.4
20260507035212 51 0 0.0 0.0 0.00 0.01 0.01 44 1019.3
20260507034122 51 29 2.0 4.0 0.00 0.01 0.01 42 1019.0
20260507033143 51 7 0.0 3.0 0.00 0.01 0.01 41 1018.8
20260507032143 52 309 0.0 2.0 0.00 0.01 0.01 40 1018.9
20260507031122 52 306 0.0 1.0 0.00 0.01 0.01 41 1018.8
20260507030143 52 302 0.0 3.0 0.00 0.01 0.01 42 1018.8
20260507025122 53 274 1.0 3.0 0.00 0.01 0.01 41 1018.7
20260507024122 53 12 2.0 5.0 0.00 0.01 0.01 39 1018.4
20260507023122 54 27 3.0 5.0 0.00 0.01 0.01 38 1018.0
20260507022122 55 3 2.0 5.0 0.00 0.01 0.01 37 1018.2
20260507021122 55 36 1.0 4.0 0.00 0.01 0.01 37 1018.2
20260507020143 56 202 0.0 2.0 0.00 0.01 0.01 35 1018.3
20260507015122 57 254 2.0 8.0 0.00 0.01 0.01 33 1018.3
20260507014122 58 239 2.0 7.0 0.00 0.01 0.01 33 1018.2
20260507013122 58 225 2.0 5.0 0.00 0.01 0.01 36 1018.2
20260507012122 58 224 2.0 6.0 0.00 0.01 0.01 32 1018.1
20260507011144 59 260 3.0 9.0 0.00 0.01 0.01 31 1018.0
20260507010122 59 243 4.0 8.0 0.00 0.01 0.01 30 1018.3
20260507005122 59 238 3.0 8.0 0.00 0.01 0.01 30 1018.2
20260507004122 59 214 3.0 9.0 0.00 0.01 0.01 32 1018.1
20260507003122 59 221 4.0 10.0 0.00 0.01 0.01 31 1018.0
20260507002143 59 217 5.0 11.0 0.00 0.01 0.01 29 1018.1
20260507001122 59 218 5.0 12.0 0.00 0.01 0.01 30 1018.0
20260507000122 60 220 5.0 9.0 0.00 0.01 0.01 30 1018.1
20260506235123 60 219 4.0 11.0 0.00 0.01 0.01 30 1017.9
20260506234122 60 223 3.0 6.0 0.00 0.01 0.01 31 1018.0
20260506233122 60 204 3.0 6.0 0.00 0.01 0.01 30 1017.8
20260506232122 60 210 4.0 11.0 0.00 0.01 0.01 32 1017.9
20260506231122 60 219 3.0 8.0 0.00 0.01 0.01 34 1017.9
20260506230122 61 225 4.0 9.0 0.00 0.01 0.01 30 1017.9
20260506225143 61 208 2.0 7.0 0.00 0.01 0.01 28 1018.0
20260506224122 61 217 2.0 6.0 0.00 0.01 0.01 29 1018.1
20260506223122 61 211 3.0 7.0 0.00 0.01 0.01 30 1018.2
20260506222122 61 212 3.0 8.0 0.00 0.01 0.01 28 1018.2
20260506221122 62 240 3.0 8.0 0.00 0.01 0.01 28 1018.2
20260506220123 62 274 2.0 8.0 0.00 0.01 0.01 27 1018.3
20260506215143 61 322 3.0 14.0 0.00 0.01 0.01 29 1018.5
20260506214122 61 353 4.0 10.0 0.00 0.01 0.01 28 1018.6
20260506213122 60 351 5.0 13.0 0.00 0.01 0.01 30 1018.7
20260506212122 60 347 4.0 15.0 0.00 0.01 0.01 28 1018.8
20260506211122 60 322 4.0 10.0 0.00 0.01 0.01 31 1018.9
20260506210122 60 286 3.0 11.0 0.00 0.01 0.01 31 1019.0
20260506205122 60 317 4.0 13.0 0.00 0.01 0.01 30 1019.0
20260506204122 59 338 7.0 17.0 0.00 0.01 0.01 30 1019.0
20260506203143 58 345 7.0 18.0 0.00 0.01 0.01 30 1019.0
20260506202122 58 326 6.0 15.0 0.00 0.01 0.01 33 1019.0
20260506201123 59 300 3.0 9.0 0.00 0.01 0.01 31 1019.1
20260506200122 58 313 5.0 20.0 0.00 0.01 0.01 30 1019.2
20260506195122 58 343 6.0 16.0 0.00 0.10 0.01 32 1019.2
20260506194122 58 305 2.0 10.0 0.00 0.10 0.01 38 1019.2
20260506193122 57 319 4.0 14.0 0.00 0.10 0.01 32 1019.2
20260506192122 57 338 4.0 13.0 0.00 0.10 0.01 35 1019.2
20260506191122 57 89 2.0 6.0 0.00 0.10 0.01 35 1019.3
20260506190122 57 187 2.0 5.0 0.00 0.10 0.01 43 1019.4
20260506185122 56 187 2.0 5.0 0.00 0.12 0.01 41 1019.4
20260506184122 54 132 3.0 7.0 0.00 0.12 0.01 44 1019.6
20260506183122 54 119 3.0 9.0 0.00 0.12 0.01 44 1019.6
20260506182122 53 118 3.0 8.0 0.00 0.12 0.01 43 1019.6
20260506181122 53 120 3.0 7.0 0.00 0.12 0.01 43 1019.6
20260506180122 53 140 2.0 6.0 0.00 0.12 0.01 47 1019.7
20260506175122 52 140 3.0 10.0 0.00 0.15 0.01 44 1019.7
20260506174122 52 166 3.0 7.0 0.00 0.15 0.01 49 1019.5
20260506173122 51 171 4.0 7.0 0.00 0.15 0.01 54 1019.6
20260506172123 50 101 4.0 8.0 0.00 0.15 0.01 49 1019.6
20260506171143 50 121 3.0 8.0 0.00 0.15 0.01 52 1019.5
20260506170123 50 91 3.0 7.0 0.00 0.15 0.01 52 1019.5
20260506165143 49 99 1.0 5.0 0.00 0.17 0.01 54 1019.4
20260506164122 48 90 2.0 7.0 0.00 0.17 0.01 49 1019.4
20260506163122 48 101 3.0 9.0 0.00 0.17 0.01 52 1019.3
20260506162122 48 127 2.0 7.0 0.00 0.17 0.01 55 1019.3
20260506161143 47 146 2.0 7.0 0.00 0.17 0.01 54 1019.1
20260506160143 47 109 3.0 8.0 0.00 0.17 0.01 54 1019.1
20260506155122 46 106 2.0 8.0 0.00 0.18 0.01 57 1019.0
20260506154122 45 129 2.0 4.0 0.00 0.18 0.01 60 1019.0
20260506153122 44 127 1.0 4.0 0.00 0.18 0.01 63 1018.9
20260506152122 42 123 2.0 4.0 0.00 0.18 0.01 69 1018.9
20260506151143 40 124 2.0 6.0 0.00 0.18 0.01 77 1018.9
20260506150143 39 113 1.0 3.0 0.00 0.18 0.01 77 1018.8
20260506145122 38 144 1.0 5.0 0.00 0.18 0.01 79 1018.7
20260506144122 38 124 0.0 3.0 0.00 0.18 0.01 81 1018.7
20260506143122 38 113 1.0 3.0 0.00 0.18 0.01 81 1018.7
20260506142122 37 95 0.0 3.0 0.00 0.18 0.01 82 1018.6
20260506141122 36 81 0.0 3.0 0.00 0.18 0.01 82 1018.4
20260506140122 36 0 0.0 0.0 0.00 0.18 0.01 82 1018.3
20260506135122 35 0 0.0 0.0 0.00 0.18 0.01 82 1018.2
20260506134122 35 0 0.0 0.0 0.00 0.18 0.01 82 1018.2
20260506133122 35 0 0.0 0.0 0.00 0.18 0.01 82 1018.0
20260506132122 34 0 0.0 0.0 0.00 0.18 0.01 81 1017.8
20260506131122 34 0 0.0 0.0 0.00 0.18 0.01 81 1017.7
20260506125122 34 0 0.0 0.0 0.00 0.18 0.01 80 1017.3
20260506124143 35 0 0.0 0.0 0.00 0.18 0.01 80 1017.0
20260506123122 35 0 0.0 0.0 0.00 0.18 0.01 80 1017.0
20260506122143 35 0 0.0 0.0 0.00 0.18 0.01 79 1016.8
20260506121123 35 0 0.0 0.0 0.00 0.18 0.01 79 1016.8
20260506120143 35 0 0.0 0.0 0.00 0.18 0.01 79 1016.7
20260506115122 36 0 0.0 0.0 0.00 0.18 0.01 79 1016.4
20260506114143 36 0 0.0 0.0 0.00 0.18 0.01 79 1016.6
20260506113122 36 0 0.0 0.0 0.00 0.18 0.01 79 1016.4
20260506112122 36 91 0.0 1.0 0.00 0.18 0.01 79 1016.4
20260506111122 36 91 0.0 1.0 0.00 0.18 0.01 79 1016.7
20260506110122 36 69 1.0 3.0 0.00 0.18 0.01 79 1016.5
20260506105143 36 51 1.0 2.0 0.00 0.18 0.01 79 1016.6
20260506104122 37 58 1.0 3.0 0.00 0.18 0.01 79 1016.5
20260506103122 37 59 1.0 3.0 0.00 0.18 0.01 79 1016.4
20260506102122 37 78 1.0 2.0 0.00 0.18 0.01 78 1016.4
20260506101122 37 81 1.0 4.0 0.00 0.18 0.01 77 1016.4
20260506100122 38 101 1.0 4.0 0.00 0.18 0.01 76 1016.4
20260506095122 38 117 3.0 9.0 0.01 0.18 0.01 75 1016.4
20260506094122 38 123 4.0 12.0 0.01 0.18 0.01 74 1016.3
20260506093143 39 153 4.0 10.0 0.01 0.18 0.01 73 1016.4
20260506092122 40 128 4.0 12.0 0.01 0.18 0.01 73 1016.4
20260506091122 42 74 2.0 8.0 0.00 0.18 0.00 72 1016.4
20260506090143 42 42 1.0 3.0 0.00 0.18 0.00 70 1015.8
20260506085122 42 164 2.0 10.0 0.00 0.17 0.00 66 1015.5
20260506084122 42 157 3.0 8.0 0.00 0.17 0.00 63 1015.3
20260506083122 43 166 2.0 7.0 0.00 0.17 0.00 63 1014.9
20260506082122 43 172 5.0 12.0 0.00 0.17 0.00 62 1014.8
20260506081122 44 59 3.0 7.0 0.00 0.17 0.00 62 1014.4
20260506080122 45 74 3.0 8.0 0.00 0.17 0.00 62 1014.1
20260506073122 47 8 4.0 12.0 0.00 0.17 0.00 69 1013.1
20260506072122 48 208 2.0 6.0 0.00 0.17 0.00 74 1012.6
20260506071122 48 197 1.0 5.0 0.00 0.17 0.00 77 1012.1
20260506070122 48 0 0.0 0.0 0.00 0.17 0.00 77 1011.7
20260506062122 49 221 0.0 1.0 0.00 0.17 0.00 76 1010.9
20260506061122 49 166 0.0 2.0 0.00 0.17 0.00 75 1010.6
20260506060122 50 119 0.0 2.0 0.00 0.17 0.00 74 1010.5
20260506051122 50 94 1.0 3.0 0.00 0.17 0.17 72 1010.1
20260506050122 50 341 0.0 1.0 0.00 0.17 0.17 70 1009.9
20260506045122 50 314 0.0 1.0 0.00 0.17 0.17 69 1009.7
20260506044122 50 0 0.0 0.0 0.00 0.17 0.17 68 1009.9